Voltar ao catálogo

CZ-6A DEB

AtivoSSO
NORAD 54597·DEBRIS·🇨🇳 China

Lançado Nov 11, 2022 de Taiyuan Satellite Launch Center

Loading…

Próximas Passagens (próximas 24 horas)

TLE

AtualizadoSource: Space-Track

Época: Sep 14, 2026, 07:16 UTC

1 54597U 22151MX  26257.30339265  .00001451  00000-0  49527-3 0  9995
2 54597  98.6540 283.0942 0070788 163.3314 197.0222 14.36488820200013

Acompanhe CZ-6A DEB em tempo real com AllMySat

Download on the App Store